Clemson, SC

4:55 PM EDT on April 23, 2017 (GMT -0400)
Oconee County Regional

Weather History for KCEU - November, 2012

Change the Weather History Date:

Sunday, November 11, 2012

  Actual Average Record
Temperature  
Mean Temperature 56 °F -  
Max Temperature 70 °F 66 °F 79 °F (1931)
Min Temperature 42 °F 39 °F 20 °F (1933)
Degree Days  
Heating Degree Days 9    
Growing Degree Days 6 (Base 50)    
Moisture  
Dew Point 45 °F    
Average Humidity 64    
Maximum Humidity 83    
Minimum Humidity 46    
Precipitation  
Precipitation 0.00 in - - ()
Sea Level Pressure  
Sea Level Pressure 30.39 in    
Wind  
Wind Speed 1 mph (NE)    
Max Wind Speed 6 mph    
Max Gust Speed -    
Visibility 10 miles    
Events      
Averages and records for this station are not official NWS values.
T = Trace of Precipitation, MM = Missing Value Source: NWS Daily Summary

Daily Weather History Graph

Daily Weather History Graph

Search for Another Location

Airport or City:

Trip Planner

Search our weather history database for the weather conditions in past years. The results will help you decide how hot, cold, wet, or windy it might be!

Date:

Astronomy

Nov. 11, 2012 Rise Set
Actual Time 7:01 AM EST 5:28 PM EST
Civil Twilight 6:35 AM EST 5:55 PM EST
Nautical Twilight 6:05 AM EST 6:25 PM EST
Astronomical Twilight 5:35 AM EST 6:55 PM EST
Moon 4:19 AM EST (11/11) 3:47 PM EST (11/11)
Length of Visible Light 11h 20m
Length of Day
10h 26m
Waning Crescent, 7% of the Moon is Illuminated
Nov 11
Waning Crescent
Nov 13
New
Nov 20
First Quarter
Nov 28
Full
Dec 6
Last Quarter

Hourly Weather History & Observations

Time (EST) Temp. Windchill Dew Point Humidity Pressure Visibility Wind Dir Wind Speed Gust Speed Precip Events Conditions
12:54 AM 51.1 °F - 45.0 °F 80% 30.36 in 10.0 mi Calm Calm - N/A   Clear
1:54 AM 48.0 °F - 43.0 °F 83% 30.36 in 10.0 mi North 3.5 mph - N/A   Clear
2:54 AM 45.0 °F 43.5 °F 39.9 °F 82% 30.36 in 10.0 mi NNE 3.5 mph - N/A   Clear
3:54 AM 46.0 °F - 39.0 °F 76% 30.37 in 10.0 mi Calm Calm - N/A   Clear
4:54 AM 43.0 °F - 37.9 °F 82% 30.38 in 10.0 mi Calm Calm - N/A   Clear
5:54 AM 42.1 °F - 37.0 °F 82% 30.40 in 10.0 mi Calm Calm - N/A   Clear
6:54 AM 42.1 °F - 37.0 °F 82% 30.42 in 9.0 mi Calm Calm - N/A   Clear
7:54 AM 46.9 °F - 41.0 °F 80% 30.45 in 10.0 mi North 3.5 mph - N/A   Clear
8:54 AM 51.1 °F - 43.0 °F 74% 30.46 in 10.0 mi North 3.5 mph - N/A   Clear
9:54 AM 57.9 °F - 39.9 °F 51% 30.47 in 10.0 mi Calm Calm - N/A   Scattered Clouds
10:54 AM 63.0 °F - 44.1 °F 50% 30.47 in 10.0 mi Calm Calm - N/A   Mostly Cloudy
11:54 AM 66.0 °F - 45.0 °F 47% 30.45 in 10.0 mi Calm Calm - N/A   Mostly Cloudy
1:54 PM 68.0 °F - 48.9 °F 50% 30.40 in 10.0 mi SSE 5.8 mph - N/A   Overcast
2:54 PM 69.1 °F - 48.9 °F 49% 30.38 in 10.0 mi Calm Calm - N/A   Overcast
3:54 PM 70.0 °F - 48.0 °F 46% 30.37 in 10.0 mi Calm Calm - N/A   Clear
4:54 PM 68.0 °F - 48.0 °F 49% 30.37 in 10.0 mi Calm Calm - N/A   Mostly Cloudy
5:54 PM 66.9 °F - 48.0 °F 51% 30.37 in 10.0 mi Calm Calm - N/A   Overcast
6:54 PM 64.9 °F - 48.9 °F 56% 30.38 in 10.0 mi Calm Calm - N/A   Overcast
7:54 PM 64.9 °F - 48.9 °F 56% 30.38 in 10.0 mi North 3.5 mph - N/A   Overcast
8:54 PM 64.0 °F - 48.9 °F 58% 30.38 in 10.0 mi Calm Calm - N/A   Overcast
9:54 PM 64.0 °F - 50.0 °F 60% 30.37 in 10.0 mi East 3.5 mph - N/A   Overcast
10:54 PM 64.0 °F - 50.0 °F 60% 30.36 in 10.0 mi Calm Calm - N/A   Mostly Cloudy
11:54 PM 63.0 °F - 51.1 °F 65% 30.36 in 10.0 mi East 3.5 mph - N/A   Overcast